Showing default

PICO-02A021, 60538

Orbit data source: Space-Track

PICO-02A021, 60538 is a payload satellite owned by Apogeo Space (IT) in SSO that was launched on Fri, 16 Aug 2024 UTC via an FALCON 9 launch vehicle from the Air Force Western Test Range (AFWTR). Payload-class satellites include a variety of spacecraft equipped with specific instruments for various scientific and technological missions. These include communications satellites like Starlink; space stations such as the ISS; scientific satellites like the Hubble; Earth observation satellites from companies like Planet Labs, Umbra, and HawkEye 360; GPS; miniature CubeSats for education and research; and military/defense satellites.

Loading next visibility...
Identifier
60538, 2024-149BY
Orbit
SSO
Country
Flag of ITIT
Related business
Manufacturer
Apogeo Space
Mission
Operational Commercial Communications
Bus & Motor
CUBESAT 0.3U, Unknown motor
Mass
0.5 kg wet, 0.5 kg dry
Launch date (UTC)
2024-08-16 (1 year ago)
Launch vehicle
FALCON 9
Launch site
Air Force Western Test Range (AFWTR)
Object type
Payload
Rocket body
Debris
Shape & HBR
Box, 0.1 m
Radar Cross Section
0.008 m², Small (<0.1 m²)

Expand to show TLE details & history
Last TLE update: 21 hours ago

TLE from 21 hours ago
0 PICO-02A021
1 60538U 24149BY  25297.17379576  .00009331  00000-0  75331-3 0  9990
2 60538  97.7119  13.2330 0003593  83.2020 276.9612 15.00056841 64312
Epoch: 2025-10-24T04:10Z
TLE epoch observation values (Epoch: 2025-10-24T04:10:15.953Z)
Latitude
-0.00005°
Longitude
-82.15596°
Altitude
569.474 km
Speed
7.576 km/s
True Right ascension
00h 52m 55s
True Declination
0° 00' 00"
Sunlit
Object was in full shadow at epoch
Visualization orbit readout
Latitude
Unknown
Longitude
Unknown
Altitude
Unknown
Speed
Unknown
Apparent Right ascension
Unknown
Apparent Declination
Unknown
Sunlit
N/A
Visualization observer readout
Local Sidereal Time
20:07:17
Azimuth
Unknown
Elevation
Unknown
Doppler factor
Unknown
Orbital elements
Apogee altitude
566.221 km
Perigee altitude
561.232 km
Semi-major axis
6,941.864 km
Eccentricity
0.00036
Inclination
97.7119°
RAAN
13.233°
Arg. of periapsis
83.202°
True anomaly
276.92033°
Mean anomaly
276.9612°
Eccentric anomaly
276.94076°
Mean motion
3.75257 °/min
Orbital period
95.93 mins
BSTAR
0.00075331
Loading maneuver chart data...
Computing Atmospheric mass density...
Loading historical data...
Loading historical data...
Loading historical data...
Loading historical data...
Loading historical data...
Loading historical data...
Loading historical data...

Documentation

Showing up to 5 results
|